| time (UTC) | temp C | wind direction | speed KPH | gust KPH | rain 1hr cm | rain 24hr cm | rain mn cm | humidity % | barometer mb |
| 20260831053059 | 20 | 87 | 3.2 | 11.3 | 0.00 | 0.03 | 0.03 | 62 | 1028.8 |
| 20260831051555 | 20 | 103 | 3.2 | 9.7 | 0.00 | 0.03 | 0.03 | 59 | 1028.9 |
| 20260831050112 | 20 | 102 | 3.2 | 9.7 | 0.00 | 0.03 | 0.03 | 63 | 1028.9 |
| 20260831044617 | 20 | 103 | 4.8 | 11.3 | 0.00 | 0.03 | 0.03 | 63 | 1028.8 |
| 20260831043053 | 20 | 96 | 3.2 | 11.3 | 0.00 | 0.03 | 0.03 | 62 | 1028.8 |
| 20260831041603 | 20 | 98 | 3.2 | 9.7 | 0.00 | 0.03 | 0.03 | 63 | 1029.0 |
| 20260831040051 | 20 | 94 | 3.2 | 9.7 | 0.00 | 0.03 | 0.03 | 63 | 1029.1 |
| 20260831034553 | 20 | 94 | 3.2 | 6.4 | 0.00 | 0.03 | 0.03 | 65 | 1029.3 |
| 20260831033049 | 20 | 94 | 4.8 | 9.7 | 0.00 | 0.03 | 0.03 | 65 | 1029.4 |
| 20260831031554 | 21 | 86 | 1.6 | 9.7 | 0.00 | 0.03 | 0.03 | 67 | 1029.5 |
| 20260831030053 | 21 | 44 | 1.6 | 6.4 | 0.00 | 0.03 | 0.03 | 68 | 1029.6 |
| 20260831024608 | 20 | 42 | 3.2 | 6.4 | 0.00 | 0.03 | 0.03 | 70 | 1030.0 |
| 20260831023043 | 20 | 40 | 4.8 | 8.0 | 0.00 | 0.03 | 0.03 | 71 | 1030.1 |
| 20260831021544 | 21 | 29 | 1.6 | 6.4 | 0.00 | 0.03 | 0.03 | 69 | 1030.3 |
| 20260831014557 | 21 | 23 | 1.6 | 4.8 | 0.00 | 0.03 | 0.03 | 69 | 1030.9 |
| 20260831013036 | 21 | 32 | 3.2 | 6.4 | 0.00 | 0.03 | 0.03 | 70 | 1031.1 |
| 20260831011537 | 20 | 65 | 3.2 | 6.4 | 0.00 | 0.03 | 0.03 | 71 | 1031.1 |
| 20260831010042 | 20 | 79 | 3.2 | 6.4 | 0.00 | 0.03 | 0.03 | 73 | 1031.4 |
| 20260831004526 | 19 | 96 | 3.2 | 6.4 | 0.00 | 0.03 | 0.03 | 76 | 1031.5 |
| 20260831003020 | 18 | 98 | 1.6 | 9.7 | 0.00 | 0.03 | 0.03 | 82 | 1031.6 |
| 20260831001527 | 17 | 102 | 3.2 | 6.4 | 0.00 | 0.03 | 0.03 | 86 | 1031.6 |
| 20260831000016 | 16 | 103 | 3.2 | 6.4 | 0.00 | 0.03 | 0.03 | 91 | 1031.5 |
| 20260830234521 | 16 | 104 | 0.0 | 6.4 | 0.00 | 0.03 | 0.03 | 94 | 1031.5 |
| 20260830233006 | 15 | 104 | 1.6 | 6.4 | 0.00 | 0.03 | 0.03 | 95 | 1031.4 |
| 20260830231503 | 15 | 107 | 0.0 | 0.0 | 0.00 | 0.03 | 0.03 | 96 | 1031.3 |
| 20260830230103 | 14 | 107 | 0.0 | 3.2 | 0.00 | 0.03 | 0.03 | 97 | 1031.5 |
| 20260830224558 | 14 | 107 | 0.0 | 0.0 | 0.00 | 0.03 | 0.03 | 97 | 1031.3 |
| 20260830223058 | 13 | 107 | 0.0 | 0.0 | 0.00 | 0.03 | 0.03 | 97 | 1031.3 |
| 20260830221553 | 13 | 107 | 0.0 | 0.0 | 0.00 | 0.03 | 0.03 | 97 | 1031.2 |
| 20260830220050 | 12 | 107 | 0.0 | 0.0 | 0.00 | 0.03 | 0.03 | 97 | 1031.2 |
| 20260830214553 | 12 | 107 | 0.0 | 0.0 | 0.00 | 0.03 | 0.03 | 97 | 1031.1 |
| 20260830213044 | 11 | 107 | 0.0 | 0.0 | 0.00 | 0.03 | 0.03 | 97 | 1031.1 |
| 20260830211544 | 11 | 107 | 0.0 | 0.0 | 0.00 | 0.03 | 0.03 | 97 | 1031.0 |
| 20260830210042 | 11 | 107 | 0.0 | 0.0 | 0.00 | 0.03 | 0.03 | 96 | 1030.9 |
| 20260830204540 | 11 | 107 | 0.0 | 0.0 | 0.00 | 0.03 | 0.03 | 97 | 1030.6 |
| 20260830203038 | 10 | 107 | 0.0 | 0.0 | 0.00 | 0.03 | 0.03 | 97 | 1030.4 |
| 20260830201603 | 10 | 107 | 0.0 | 0.0 | 0.00 | 0.03 | 0.03 | 97 | 1030.1 |
| 20260830200036 | 10 | 107 | 0.0 | 0.0 | 0.00 | 0.03 | 0.03 | 96 | 1030.0 |
| 20260830194535 | 10 | 107 | 0.0 | 0.0 | 0.00 | 0.03 | 0.03 | 96 | 1030.0 |
| 20260830193040 | 10 | 107 | 0.0 | 0.0 | 0.00 | 0.03 | 0.03 | 96 | 1030.0 |
| 20260830191535 | 10 | 107 | 0.0 | 0.0 | 0.00 | 0.03 | 0.03 | 96 | 1029.9 |
| 20260830190034 | 10 | 107 | 0.0 | 0.0 | 0.00 | 0.05 | 0.03 | 96 | 1030.0 |
| 20260830184533 | 10 | 107 | 0.0 | 0.0 | 0.00 | 0.05 | 0.03 | 96 | 1029.9 |
| 20260830183028 | 10 | 107 | 0.0 | 0.0 | 0.00 | 0.05 | 0.03 | 96 | 1030.0 |
| 20260830181526 | 10 | 107 | 0.0 | 0.0 | 0.00 | 0.05 | 0.03 | 96 | 1029.9 |
| 20260830180024 | 10 | 107 | 0.0 | 0.0 | 0.00 | 0.05 | 0.03 | 96 | 1030.0 |
| 20260830174526 | 11 | 107 | 0.0 | 0.0 | 0.00 | 0.05 | 0.03 | 96 | 1030.1 |
| 20260830173029 | 11 | 107 | 0.0 | 0.0 | 0.00 | 0.05 | 0.03 | 96 | 1030.0 |
| 20260830171521 | 11 | 107 | 0.0 | 0.0 | 0.03 | 0.05 | 0.03 | 96 | 1030.0 |
| 20260830170021 | 10 | 107 | 0.0 | 0.0 | 0.03 | 0.05 | 0.03 | 96 | 1030.1 |
| 20260830164518 | 11 | 107 | 0.0 | 0.0 | 0.03 | 0.05 | 0.03 | 95 | 1030.1 |
| 20260830163020 | 11 | 107 | 0.0 | 0.0 | 0.03 | 0.05 | 0.03 | 95 | 1030.2 |
| 20260830161514 | 11 | 107 | 0.0 | 0.0 | 0.00 | 0.03 | 0.00 | 95 | 1030.1 |
| 20260830160015 | 11 | 107 | 0.0 | 0.0 | 0.00 | 0.03 | 0.00 | 96 | 1030.3 |
| 20260830154511 | 11 | 107 | 0.0 | 0.0 | 0.00 | 0.03 | 0.00 | 95 | 1030.3 |
| 20260830153026 | 11 | 107 | 0.0 | 0.0 | 0.00 | 0.03 | 0.00 | 95 | 1030.4 |
| 20260830151511 | 11 | 107 | 0.0 | 0.0 | 0.00 | 0.03 | 0.00 | 95 | 1030.6 |
| 20260830150006 | 11 | 107 | 0.0 | 0.0 | 0.00 | 0.03 | 0.00 | 95 | 1030.6 |
| 20260830144506 | 11 | 107 | 0.0 | 0.0 | 0.00 | 0.03 | 0.00 | 95 | 1030.6 |
| 20260830143002 | 12 | 107 | 0.0 | 0.0 | 0.00 | 0.03 | 0.00 | 95 | 1030.7 |
| 20260830141600 | 12 | 107 | 0.0 | 0.0 | 0.00 | 0.03 | 0.00 | 95 | 1030.7 |
| 20260830140057 | 12 | 107 | 0.0 | 0.0 | 0.00 | 0.03 | 0.03 | 95 | 1030.5 |
| 20260830134559 | 12 | 107 | 0.0 | 0.0 | 0.00 | 0.03 | 0.03 | 95 | 1030.4 |
| 20260830133056 | 12 | 107 | 0.0 | 0.0 | 0.00 | 0.03 | 0.03 | 94 | 1030.3 |
| 20260830131603 | 12 | 107 | 0.0 | 0.0 | 0.00 | 0.03 | 0.03 | 95 | 1030.2 |
| 20260830130057 | 12 | 107 | 0.0 | 0.0 | 0.00 | 0.03 | 0.03 | 95 | 1030.3 |
| 20260830124600 | 12 | 107 | 0.0 | 0.0 | 0.00 | 0.03 | 0.03 | 94 | 1030.5 |
| 20260830123102 | 12 | 107 | 0.0 | 0.0 | 0.00 | 0.03 | 0.03 | 95 | 1030.6 |
| 20260830121554 | 12 | 107 | 0.0 | 3.2 | 0.00 | 0.03 | 0.03 | 94 | 1030.7 |
| 20260830120055 | 12 | 107 | 0.0 | 1.6 | 0.00 | 0.03 | 0.03 | 94 | 1030.6 |
| 20260830114558 | 12 | 107 | 0.0 | 0.0 | 0.00 | 0.03 | 0.03 | 94 | 1030.4 |
| 20260830113052 | 12 | 107 | 0.0 | 0.0 | 0.00 | 0.03 | 0.03 | 94 | 1030.4 |
| 20260830111551 | 12 | 107 | 0.0 | 0.0 | 0.00 | 0.03 | 0.03 | 94 | 1030.3 |
| 20260830110055 | 12 | 107 | 0.0 | 1.6 | 0.00 | 0.03 | 0.03 | 93 | 1030.3 |
| 20260830104550 | 12 | 107 | 0.0 | 0.0 | 0.00 | 0.03 | 0.03 | 92 | 1030.3 |
| 20260830103049 | 13 | 107 | 0.0 | 0.0 | 0.00 | 0.03 | 0.03 | 92 | 1030.2 |
| 20260830101548 | 13 | 107 | 0.0 | 0.0 | 0.00 | 0.03 | 0.03 | 92 | 1030.2 |
| 20260830100048 | 13 | 107 | 0.0 | 0.0 | 0.00 | 0.03 | 0.03 | 92 | 1030.2 |
| 20260830094606 | 13 | 107 | 0.0 | 0.0 | 0.00 | 0.03 | 0.03 | 91 | 1030.0 |
| 20260830093045 | 13 | 107 | 0.0 | 0.0 | 0.00 | 0.03 | 0.03 | 90 | 1029.9 |
| 20260830091545 | 14 | 107 | 0.0 | 0.0 | 0.00 | 0.03 | 0.03 | 89 | 1029.9 |
| 20260830090048 | 14 | 107 | 0.0 | 0.0 | 0.00 | 0.03 | 0.03 | 89 | 1029.7 |
| 20260830084543 | 15 | 107 | 0.0 | 1.6 | 0.00 | 0.03 | 0.03 | 87 | 1029.6 |
| 20260830083042 | 15 | 107 | 0.0 | 0.0 | 0.00 | 0.03 | 0.03 | 85 | 1029.4 |
| 20260830081541 | 15 | 107 | 0.0 | 0.0 | 0.00 | 0.03 | 0.03 | 83 | 1029.2 |
| 20260830080047 | 16 | 107 | 0.0 | 0.0 | 0.00 | 0.03 | 0.03 | 81 | 1029.2 |
| 20260830074540 | 16 | 107 | 0.0 | 4.8 | 0.00 | 0.03 | 0.03 | 79 | 1029.3 |
| 20260830073040 | 17 | 107 | 1.6 | 4.8 | 0.00 | 0.03 | 0.03 | 78 | 1029.1 |
| 20260830071541 | 17 | 107 | 3.2 | 6.4 | 0.00 | 0.03 | 0.03 | 78 | 1028.9 |
| 20260830070042 | 17 | 107 | 1.6 | 4.8 | 0.00 | 0.03 | 0.03 | 77 | 1028.9 |
| 20260830064545 | 17 | 107 | 3.2 | 9.7 | 0.00 | 0.03 | 0.03 | 75 | 1028.9 |
| 20260830063038 | 18 | 108 | 4.8 | 9.7 | 0.00 | 0.03 | 0.03 | 74 | 1028.7 |
| 20260830061536 | 18 | 109 | 4.8 | 14.5 | 0.00 | 0.03 | 0.03 | 74 | 1028.5 |
| 20260830060036 | 18 | 105 | 9.7 | 12.9 | 0.00 | 0.03 | 0.03 | 73 | 1028.5 |
| 20260830054544 | 18 | 104 | 4.8 | 11.3 | 0.00 | 0.03 | 0.03 | 73 | 1028.4 |